Tracking 25744 objects as of 25-Jun-2022
HD Live streaming from Space Station
objects crossing your sky now

TITAN 3C TRANSTAGE R/B

Track TITAN 3C TRANSTAGE R/B now!


NORAD ID: 10942
Int'l Code: 1978-058B
Perigee: 29,719.0 km
Apogee: 42,231.0 km
Inclination: 8.9 °
Period: 1,445.4 minutes
Semi major axis: 42345 km
RCS: Unknown
Launch date: June 10, 1978
Source: United States (US)
Launch site: AIR FORCE EASTERN TEST RANGE (AFETR)

Note: This is a ROCKET BODY
aabbcc
Your satellite tracking list
Your tracking list is empty




NASA's NSSDC Master Catalog

Two Line Element Set (TLE):
1 10942U 78058B   22175.27651632 -.00000005  00000-0  00000-0 0  9999
2 10942   8.8630  24.3748 1477357  98.8124 278.1180  0.99628782 12288
Source of the keplerian elements: McCants